| time (UTC) | temp C | wind direction | speed KPH | gust KPH | rain 1hr cm | rain 24hr cm | rain mn cm | humidity % | barometer mb |
| 20260506062403 | 17 | 298 | 0.0 | 3.2 | 0.00 | 0.38 | 0.30 | 40 | 1013.9 |
| 20260506061903 | 17 | 296 | 0.0 | 3.2 | 0.00 | 0.38 | 0.30 | 40 | 1013.9 |
| 20260506061403 | 17 | 275 | 0.0 | 3.2 | 0.00 | 0.38 | 0.30 | 39 | 1014.0 |
| 20260506060404 | 17 | 291 | 0.0 | 4.8 | 0.00 | 0.38 | 0.30 | 38 | 1013.8 |
| 20260506051404 | 18 | 247 | 1.6 | 4.8 | 0.00 | 0.43 | 0.30 | 37 | 1013.6 |
| 20260506050904 | 18 | 267 | 1.6 | 9.7 | 0.00 | 0.43 | 0.30 | 37 | 1013.5 |
| 20260506050404 | 18 | 230 | 1.6 | 9.7 | 0.00 | 0.43 | 0.30 | 37 | 1013.4 |
| 20260506044904 | 18 | 239 | 4.8 | 11.3 | 0.00 | 0.43 | 0.30 | 38 | 1013.3 |
| 20260506044403 | 18 | 235 | 3.2 | 4.8 | 0.00 | 0.43 | 0.30 | 39 | 1013.3 |
| 20260506043903 | 18 | 237 | 3.2 | 4.8 | 0.00 | 0.43 | 0.30 | 39 | 1013.3 |
| 20260506043403 | 18 | 233 | 1.6 | 4.8 | 0.00 | 0.43 | 0.30 | 38 | 1013.2 |
| 20260506042403 | 19 | 246 | 1.6 | 4.8 | 0.00 | 0.43 | 0.30 | 38 | 1013.2 |
| 20260506041903 | 19 | 244 | 1.6 | 4.8 | 0.00 | 0.46 | 0.30 | 38 | 1013.1 |
| 20260506041403 | 19 | 243 | 1.6 | 3.2 | 0.00 | 0.46 | 0.30 | 38 | 1013.1 |
| 20260506040904 | 19 | 134 | 0.0 | 3.2 | 0.00 | 0.46 | 0.30 | 37 | 1013.0 |
| 20260506040404 | 19 | 211 | 1.6 | 3.2 | 0.00 | 0.48 | 0.30 | 37 | 1012.9 |
| 20260506035904 | 20 | 219 | 1.6 | 4.8 | 0.00 | 0.48 | 0.30 | 37 | 1012.5 |
| 20260506035403 | 20 | 252 | 1.6 | 8.0 | 0.00 | 0.51 | 0.30 | 36 | 1012.5 |
| 20260506034903 | 20 | 225 | 3.2 | 8.0 | 0.00 | 0.53 | 0.30 | 37 | 1012.4 |
| 20260506034403 | 20 | 242 | 3.2 | 12.9 | 0.00 | 0.53 | 0.30 | 38 | 1012.3 |
| 20260506033904 | 20 | 247 | 4.8 | 12.9 | 0.00 | 0.53 | 0.30 | 39 | 1012.3 |
| 20260506033404 | 20 | 229 | 4.8 | 14.5 | 0.00 | 0.53 | 0.30 | 39 | 1012.1 |
| 20260506032404 | 20 | 211 | 3.2 | 11.3 | 0.00 | 0.53 | 0.30 | 40 | 1012.0 |
| 20260506031904 | 20 | 253 | 3.2 | 9.7 | 0.00 | 0.53 | 0.30 | 39 | 1011.9 |
| 20260506030904 | 20 | 240 | 3.2 | 11.3 | 0.00 | 0.53 | 0.30 | 36 | 1011.7 |
| 20260506030404 | 20 | 232 | 3.2 | 9.7 | 0.00 | 0.53 | 0.30 | 35 | 1011.6 |
| 20260506025904 | 20 | 261 | 3.2 | 11.3 | 0.00 | 0.53 | 0.30 | 35 | 1011.5 |
| 20260506025403 | 20 | 256 | 1.6 | 11.3 | 0.00 | 0.53 | 0.30 | 35 | 1011.5 |
| 20260506024904 | 20 | 235 | 3.2 | 12.9 | 0.00 | 0.53 | 0.30 | 34 | 1011.4 |
| 20260506024403 | 20 | 230 | 4.8 | 12.9 | 0.00 | 0.53 | 0.30 | 34 | 1011.3 |
| 20260506023904 | 21 | 225 | 3.2 | 11.3 | 0.00 | 0.53 | 0.30 | 34 | 1011.3 |
| 20260506022903 | 21 | 224 | 4.8 | 16.1 | 0.00 | 0.53 | 0.30 | 34 | 1011.1 |
| 20260506021903 | 21 | 228 | 4.8 | 12.9 | 0.00 | 0.53 | 0.30 | 34 | 1011.0 |
| 20260506021404 | 21 | 235 | 4.8 | 12.9 | 0.00 | 0.53 | 0.30 | 33 | 1010.8 |
| 20260506020904 | 21 | 231 | 4.8 | 19.3 | 0.00 | 0.53 | 0.30 | 33 | 1010.7 |
| 20260506020403 | 21 | 242 | 4.8 | 19.3 | 0.00 | 0.53 | 0.30 | 33 | 1010.6 |
| 20260506015403 | 21 | 228 | 4.8 | 16.1 | 0.00 | 0.56 | 0.30 | 31 | 1010.5 |
| 20260506014403 | 21 | 240 | 8.0 | 19.3 | 0.00 | 0.56 | 0.30 | 30 | 1010.4 |
| 20260506013904 | 22 | 239 | 8.0 | 19.3 | 0.00 | 0.58 | 0.30 | 28 | 1010.4 |
| 20260506013404 | 22 | 235 | 6.4 | 19.3 | 0.00 | 0.58 | 0.30 | 28 | 1010.3 |
| 20260506012903 | 22 | 241 | 9.7 | 19.3 | 0.00 | 0.58 | 0.30 | 28 | 1010.3 |
| 20260506012404 | 22 | 237 | 9.7 | 22.5 | 0.00 | 0.58 | 0.30 | 28 | 1010.3 |
| 20260506011904 | 22 | 232 | 9.7 | 22.5 | 0.00 | 0.58 | 0.30 | 28 | 1010.2 |
| 20260506011404 | 22 | 236 | 9.7 | 22.5 | 0.00 | 0.58 | 0.30 | 28 | 1010.2 |
| 20260506010403 | 22 | 236 | 9.7 | 25.7 | 0.00 | 0.58 | 0.30 | 29 | 1010.2 |
| 20260506005903 | 22 | 239 | 11.3 | 25.7 | 0.00 | 0.58 | 0.30 | 29 | 1010.1 |
| 20260506005403 | 22 | 230 | 11.3 | 25.7 | 0.00 | 0.58 | 0.30 | 29 | 1010.1 |
| 20260506004403 | 23 | 232 | 8.0 | 24.1 | 0.00 | 0.58 | 0.30 | 29 | 1010.1 |
| 20260506003904 | 23 | 253 | 14.5 | 24.1 | 0.00 | 0.58 | 0.30 | 28 | 1010.0 |
| 20260506002903 | 23 | 229 | 8.0 | 22.5 | 0.00 | 0.58 | 0.30 | 28 | 1009.9 |
| 20260506002404 | 23 | 237 | 8.0 | 22.5 | 0.00 | 0.58 | 0.30 | 28 | 1009.8 |
| 20260506001903 | 24 | 235 | 9.7 | 19.3 | 0.00 | 0.58 | 0.30 | 26 | 1009.9 |
| 20260506001404 | 24 | 236 | 8.0 | 27.4 | 0.00 | 0.58 | 0.30 | 26 | 1009.7 |
| 20260506000904 | 24 | 228 | 11.3 | 27.4 | 0.00 | 0.58 | 0.30 | 26 | 1009.8 |
| 20260505235903 | 25 | 235 | 9.7 | 22.5 | 0.00 | 0.58 | 0.30 | 26 | 1009.6 |
| 20260505235403 | 25 | 239 | 8.0 | 22.5 | 0.00 | 0.58 | 0.30 | 25 | 1009.6 |
| 20260505234903 | 25 | 198 | 8.0 | 22.5 | 0.00 | 0.58 | 0.30 | 26 | 1009.5 |
| 20260505234404 | 25 | 242 | 11.3 | 22.5 | 0.00 | 0.58 | 0.30 | 26 | 1009.4 |
| 20260505233903 | 25 | 233 | 8.0 | 24.1 | 0.00 | 0.58 | 0.30 | 26 | 1009.4 |
| 20260505233403 | 25 | 229 | 9.7 | 24.1 | 0.00 | 0.58 | 0.30 | 25 | 1009.4 |
| 20260505232903 | 25 | 231 | 9.7 | 24.1 | 0.00 | 0.58 | 0.30 | 25 | 1009.4 |
| 20260505232403 | 25 | 222 | 6.4 | 22.5 | 0.00 | 0.58 | 0.30 | 25 | 1009.3 |
| 20260505231903 | 25 | 219 | 9.7 | 22.5 | 0.00 | 0.58 | 0.30 | 25 | 1009.4 |
| 20260505231403 | 25 | 210 | 8.0 | 22.5 | 0.00 | 0.58 | 0.30 | 25 | 1009.4 |
| 20260505230903 | 25 | 237 | 9.7 | 19.3 | 0.00 | 0.58 | 0.30 | 26 | 1009.4 |
| 20260505230403 | 25 | 227 | 6.4 | 19.3 | 0.00 | 0.58 | 0.30 | 27 | 1009.4 |
| 20260505225404 | 25 | 229 | 9.7 | 25.7 | 0.00 | 0.58 | 0.30 | 26 | 1009.4 |
| 20260505224903 | 25 | 227 | 8.0 | 19.3 | 0.00 | 0.58 | 0.30 | 27 | 1009.4 |
| 20260505224403 | 25 | 233 | 6.4 | 19.3 | 0.00 | 0.58 | 0.30 | 28 | 1009.5 |
| 20260505223903 | 24 | 225 | 4.8 | 19.3 | 0.00 | 0.58 | 0.30 | 27 | 1009.6 |
| 20260505223403 | 24 | 231 | 8.0 | 22.5 | 0.00 | 0.58 | 0.30 | 29 | 1009.8 |
| 20260505222904 | 24 | 228 | 9.7 | 22.5 | 0.00 | 0.58 | 0.30 | 28 | 1009.7 |
| 20260505222404 | 24 | 204 | 8.0 | 20.9 | 0.00 | 0.58 | 0.30 | 28 | 1009.8 |
| 20260505221903 | 25 | 243 | 8.0 | 22.5 | 0.00 | 0.58 | 0.30 | 28 | 1009.9 |
| 20260505220903 | 25 | 199 | 4.8 | 19.3 | 0.00 | 0.58 | 0.30 | 28 | 1009.9 |
| 20260505220403 | 25 | 234 | 8.0 | 19.3 | 0.00 | 0.58 | 0.30 | 28 | 1009.9 |
| 20260505215904 | 25 | 263 | 6.4 | 19.3 | 0.00 | 0.58 | 0.30 | 28 | 1010.0 |
| 20260505215403 | 25 | 224 | 8.0 | 27.4 | 0.00 | 0.58 | 0.30 | 28 | 1010.1 |
| 20260505214904 | 25 | 236 | 11.3 | 27.4 | 0.00 | 0.58 | 0.30 | 28 | 1010.1 |
| 20260505214403 | 25 | 246 | 8.0 | 16.1 | 0.00 | 0.58 | 0.30 | 29 | 1010.1 |
| 20260505213404 | 25 | 222 | 6.4 | 19.3 | 0.00 | 0.58 | 0.30 | 30 | 1010.2 |
| 20260505211904 | 23 | 229 | 3.2 | 19.3 | 0.00 | 0.58 | 0.30 | 35 | 1010.5 |
| 20260505211403 | 23 | 228 | 6.4 | 19.3 | 0.00 | 0.58 | 0.30 | 35 | 1010.5 |
| 20260505210904 | 23 | 236 | 8.0 | 19.3 | 0.00 | 0.58 | 0.30 | 36 | 1010.6 |
| 20260505205903 | 24 | 234 | 9.7 | 20.9 | 0.00 | 0.58 | 0.30 | 39 | 1010.7 |
| 20260505204904 | 23 | 227 | 6.4 | 19.3 | 0.00 | 0.58 | 0.30 | 39 | 1010.6 |
| 20260505204403 | 24 | 245 | 4.8 | 12.9 | 0.00 | 0.58 | 0.30 | 40 | 1010.7 |
| 20260505203903 | 24 | 177 | 4.8 | 19.3 | 0.00 | 0.58 | 0.30 | 41 | 1010.8 |
| 20260505202904 | 24 | 217 | 6.4 | 19.3 | 0.00 | 0.58 | 0.30 | 37 | 1010.8 |
| 20260505201903 | 23 | 241 | 9.7 | 19.3 | 0.00 | 0.58 | 0.30 | 41 | 1010.9 |
| 20260505201404 | 23 | 231 | 4.8 | 19.3 | 0.00 | 0.58 | 0.30 | 42 | 1010.9 |
| 20260505200903 | 23 | 220 | 4.8 | 16.1 | 0.00 | 0.58 | 0.30 | 44 | 1010.9 |
| 20260505200403 | 23 | 244 | 3.2 | 16.1 | 0.00 | 0.58 | 0.30 | 41 | 1011.1 |
| 20260505195904 | 23 | 223 | 4.8 | 14.5 | 0.00 | 0.58 | 0.30 | 45 | 1011.1 |
| 20260505195404 | 23 | 239 | 4.8 | 14.5 | 0.00 | 0.58 | 0.30 | 43 | 1011.1 |
| 20260505194903 | 23 | 249 | 4.8 | 14.5 | 0.00 | 0.58 | 0.30 | 44 | 1011.0 |
| 20260505194404 | 23 | 221 | 3.2 | 16.1 | 0.00 | 0.58 | 0.30 | 45 | 1011.2 |
| 20260505193904 | 23 | 227 | 4.8 | 16.1 | 0.00 | 0.58 | 0.30 | 46 | 1011.3 |
| 20260505193404 | 22 | 237 | 6.4 | 19.3 | 0.00 | 0.58 | 0.30 | 48 | 1011.3 |
| 20260505192903 | 22 | 239 | 9.7 | 19.3 | 0.00 | 0.58 | 0.30 | 47 | 1011.2 |
| 20260505192404 | 23 | 245 | 8.0 | 16.1 | 0.00 | 0.58 | 0.30 | 47 | 1011.1 |
| 20260505191904 | 23 | 212 | 6.4 | 14.5 | 0.00 | 0.58 | 0.30 | 48 | 1011.2 |
| 20260505191403 | 22 | 257 | 3.2 | 19.3 | 0.00 | 0.58 | 0.30 | 50 | 1011.4 |
| 20260505190903 | 22 | 233 | 8.0 | 19.3 | 0.00 | 0.58 | 0.30 | 51 | 1011.6 |
| 20260505190403 | 22 | 216 | 3.2 | 12.9 | 0.00 | 0.58 | 0.30 | 50 | 1011.6 |
| 20260505185903 | 22 | 161 | 4.8 | 9.7 | 0.00 | 0.58 | 0.30 | 50 | 1011.6 |
| 20260505185403 | 22 | 246 | 1.6 | 9.7 | 0.00 | 0.58 | 0.30 | 53 | 1011.7 |
| 20260505184904 | 21 | 250 | 1.6 | 4.8 | 0.00 | 0.58 | 0.30 | 53 | 1011.7 |
| 20260505184403 | 21 | 345 | 3.2 | 4.8 | 0.00 | 0.58 | 0.30 | 54 | 1011.9 |
| 20260505183903 | 21 | 231 | 1.6 | 4.8 | 0.00 | 0.58 | 0.30 | 53 | 1011.7 |
| 20260505183404 | 21 | 309 | 3.2 | 8.0 | 0.00 | 0.58 | 0.30 | 52 | 1011.8 |
| 20260505182904 | 21 | 151 | 3.2 | 8.0 | 0.00 | 0.58 | 0.30 | 53 | 1011.9 |
| 20260505182404 | 21 | 160 | 1.6 | 4.8 | 0.00 | 0.58 | 0.30 | 55 | 1012.0 |
| 20260505181903 | 21 | 225 | 1.6 | 4.8 | 0.00 | 0.58 | 0.30 | 56 | 1012.0 |
| 20260505181403 | 20 | 255 | 1.6 | 4.8 | 0.00 | 0.58 | 0.30 | 57 | 1012.0 |
| 20260505180904 | 19 | 207 | 0.0 | 4.8 | 0.00 | 0.58 | 0.30 | 59 | 1012.1 |
| 20260505180404 | 20 | 238 | 1.6 | 4.8 | 0.00 | 0.58 | 0.30 | 58 | 1012.2 |
| 20260505175403 | 20 | 276 | 1.6 | 4.8 | 0.00 | 0.58 | 0.30 | 58 | 1012.4 |
| 20260505174403 | 19 | 245 | 1.6 | 4.8 | 0.00 | 0.58 | 0.30 | 59 | 1012.5 |
| 20260505173904 | 20 | 261 | 1.6 | 4.8 | 0.00 | 0.58 | 0.30 | 61 | 1012.4 |
| 20260505173403 | 19 | 48 | 0.0 | 4.8 | 0.00 | 0.58 | 0.30 | 61 | 1012.6 |
| 20260505172403 | 19 | 329 | 1.6 | 4.8 | 0.00 | 0.58 | 0.30 | 60 | 1012.6 |
| 20260505171903 | 19 | 192 | 1.6 | 4.8 | 0.00 | 0.58 | 0.30 | 58 | 1012.4 |
| 20260505171404 | 19 | 275 | 1.6 | 4.8 | 0.00 | 0.58 | 0.30 | 60 | 1012.5 |
| 20260505170403 | 18 | 192 | 1.6 | 4.8 | 0.00 | 0.58 | 0.30 | 60 | 1012.5 |
| 20260505165903 | 19 | 231 | 1.6 | 4.8 | 0.00 | 0.58 | 0.30 | 60 | 1012.4 |
| 20260505165404 | 19 | 206 | 3.2 | 4.8 | 0.00 | 0.58 | 0.30 | 61 | 1012.4 |
| 20260505164903 | 19 | 247 | 0.0 | 4.8 | 0.00 | 0.58 | 0.30 | 63 | 1012.4 |
| 20260505164404 | 18 | 198 | 0.0 | 8.0 | 0.00 | 0.58 | 0.30 | 62 | 1012.4 |
| 20260505163904 | 18 | 206 | 3.2 | 8.0 | 0.00 | 0.58 | 0.30 | 63 | 1012.5 |
| 20260505163403 | 18 | 225 | 3.2 | 4.8 | 0.00 | 0.58 | 0.30 | 64 | 1012.5 |
| 20260505162904 | 18 | 339 | 1.6 | 4.8 | 0.00 | 0.58 | 0.30 | 63 | 1012.3 |
| 20260505161904 | 18 | 229 | 1.6 | 8.0 | 0.00 | 0.58 | 0.30 | 64 | 1012.5 |
| 20260505161405 | 18 | 211 | 3.2 | 8.0 | 0.00 | 0.58 | 0.30 | 66 | 1012.5 |
| 20260505160903 | 17 | 155 | 1.6 | 4.8 | 0.00 | 0.58 | 0.30 | 68 | 1012.4 |
| 20260505160404 | 17 | 237 | 3.2 | 4.8 | 0.00 | 0.58 | 0.30 | 66 | 1012.4 |
| 20260505152404 | 17 | 186 | 1.6 | 4.8 | 0.00 | 0.58 | 0.30 | 73 | 1012.2 |
| 20260505151904 | 17 | 248 | 1.6 | 4.8 | 0.00 | 0.58 | 0.30 | 79 | 1012.4 |
| 20260505151404 | 17 | 254 | 1.6 | 4.8 | 0.00 | 0.58 | 0.30 | 79 | 1012.3 |
| 20260505150903 | 17 | 227 | 1.6 | 4.8 | 0.00 | 0.58 | 0.30 | 80 | 1012.4 |
| 20260505150403 | 16 | 225 | 1.6 | 4.8 | 0.00 | 0.58 | 0.30 | 80 | 1012.3 |
| 20260505140404 | 16 | 244 | 0.0 | 3.2 | 0.00 | 0.58 | 0.30 | 86 | 1012.2 |
| 20260505123903 | 15 | 221 | 0.0 | 3.2 | 0.00 | 0.58 | 0.30 | 86 | 1011.2 |
| 20260505123404 | 15 | 229 | 0.0 | 1.6 | 0.00 | 0.58 | 0.30 | 86 | 1011.1 |
| 20260505122403 | 15 | 229 | 0.0 | 1.6 | 0.00 | 0.58 | 0.30 | 86 | 1011.1 |
| 20260505121904 | 15 | 229 | 0.0 | 3.2 | 0.00 | 0.58 | 0.30 | 86 | 1011.2 |
| 20260505121404 | 15 | 229 | 1.6 | 3.2 | 0.00 | 0.58 | 0.30 | 85 | 1011.2 |
| 20260505120904 | 15 | 119 | 0.0 | 3.2 | 0.03 | 0.58 | 0.30 | 85 | 1011.2 |
| 20260505114903 | 15 | 102 | 0.0 | 9.7 | 0.03 | 0.58 | 0.30 | 85 | 1010.9 |
| 20260505113903 | 15 | 129 | 1.6 | 9.7 | 0.05 | 0.58 | 0.30 | 85 | 1010.7 |
| 20260505113403 | 15 | 107 | 3.2 | 4.8 | 0.05 | 0.58 | 0.30 | 85 | 1010.7 |
| 20260505112903 | 15 | 134 | 1.6 | 4.8 | 0.05 | 0.58 | 0.30 | 86 | 1010.9 |
| 20260505112403 | 15 | 197 | 0.0 | 3.2 | 0.05 | 0.58 | 0.30 | 86 | 1011.1 |
| 20260505111904 | 15 | 115 | 1.6 | 3.2 | 0.05 | 0.58 | 0.30 | 86 | 1011.1 |
| 20260505111404 | 15 | 170 | 1.6 | 8.0 | 0.08 | 0.58 | 0.30 | 86 | 1011.0 |
| 20260505110904 | 15 | 173 | 1.6 | 8.0 | 0.05 | 0.56 | 0.28 | 86 | 1011.0 |
| 20260505110403 | 15 | 120 | 3.2 | 4.8 | 0.05 | 0.56 | 0.28 | 86 | 1010.8 |
| 20260505101904 | 15 | 108 | 4.8 | 11.3 | 0.03 | 0.53 | 0.25 | 86 | 1011.6 |
| 20260505100404 | 15 | 139 | 1.6 | 14.5 | 0.00 | 0.51 | 0.23 | 85 | 1012.4 |
| 20260505095903 | 15 | 173 | 1.6 | 19.3 | 0.00 | 0.51 | 0.23 | 85 | 1012.2 |
| 20260505094903 | 15 | 150 | 3.2 | 19.3 | 0.03 | 0.51 | 0.23 | 85 | 1012.1 |
| 20260505094403 | 15 | 104 | 6.4 | 22.5 | 0.03 | 0.51 | 0.23 | 85 | 1011.9 |
| 20260505093904 | 15 | 159 | 6.4 | 22.5 | 0.03 | 0.51 | 0.23 | 85 | 1011.8 |
| 20260505093404 | 15 | 114 | 9.7 | 22.5 | 0.03 | 0.51 | 0.23 | 85 | 1011.8 |
| 20260505092903 | 15 | 137 | 3.2 | 16.1 | 0.03 | 0.51 | 0.23 | 85 | 1012.2 |
| 20260505091904 | 15 | 190 | 3.2 | 12.9 | 0.08 | 0.51 | 0.23 | 84 | 1012.2 |
| 20260505091404 | 15 | 101 | 4.8 | 12.9 | 0.08 | 0.51 | 0.23 | 84 | 1012.2 |
| 20260505090903 | 15 | 105 | 4.8 | 14.5 | 0.10 | 0.51 | 0.23 | 85 | 1012.1 |
| 20260505090404 | 15 | 112 | 3.2 | 14.5 | 0.10 | 0.51 | 0.23 | 85 | 1012.1 |
| 20260505084404 | 15 | 99 | 3.2 | 12.9 | 0.10 | 0.48 | 0.20 | 86 | 1012.5 |
| 20260505083904 | 15 | 106 | 3.2 | 12.9 | 0.13 | 0.48 | 0.20 | 86 | 1012.5 |
| 20260505083403 | 15 | 110 | 6.4 | 12.9 | 0.13 | 0.48 | 0.20 | 87 | 1012.8 |
| 20260505082904 | 15 | 125 | 4.8 | 12.9 | 0.15 | 0.48 | 0.20 | 87 | 1013.2 |
| 20260505081403 | 15 | 116 | 3.2 | 12.9 | 0.13 | 0.43 | 0.15 | 86 | 1013.7 |
| 20260505080904 | 15 | 94 | 3.2 | 12.9 | 0.10 | 0.41 | 0.13 | 86 | 1013.7 |
| 20260505080404 | 15 | 122 | 4.8 | 12.9 | 0.10 | 0.41 | 0.13 | 86 | 1014.0 |
| 20260505075904 | 15 | 114 | 3.2 | 11.3 | 0.13 | 0.41 | 0.13 | 87 | 1014.1 |
| 20260505075403 | 15 | 119 | 3.2 | 11.3 | 0.10 | 0.38 | 0.10 | 87 | 1014.4 |
| 20260505074904 | 15 | 117 | 1.6 | 11.3 | 0.13 | 0.38 | 0.10 | 87 | 1014.4 |
| 20260505074404 | 15 | 138 | 3.2 | 11.3 | 0.13 | 0.38 | 0.10 | 87 | 1014.2 |
| 20260505073904 | 15 | 134 | 3.2 | 12.9 | 0.10 | 0.36 | 0.08 | 87 | 1014.2 |
| 20260505072904 | 15 | 113 | 3.2 | 9.7 | 0.10 | 0.33 | 0.05 | 87 | 1014.5 |
| 20260505072404 | 15 | 102 | 0.0 | 4.8 | 0.10 | 0.30 | 0.03 | 87 | 1014.6 |
| 20260505071404 | 15 | 119 | 1.6 | 3.2 | 0.10 | 0.30 | 0.03 | 87 | 1014.5 |
| 20260505070903 | 15 | 120 | 0.0 | 4.8 | 0.10 | 0.30 | 0.03 | 86 | 1014.4 |